Location: Huisseau
(47.5933°N, 1.4533°E)
Time: 18:56:23
(UTC+00:00)

CENTAUR R/B - Pass Details

Date: 26 November 2025
Orbit: 633 x 1547 km, 63.4° (Epoch: 06 December)

Event Time Altitude Azimuth Distance (km) Brightness Sun altitude
Exits shadow 03:57:41 35° 195° (SSW) 2,247 4.1 -32.7°
Drops below altitude 10° 04:03:13 10° 172° (S) 3,718 5.5 -31.7°
Sets 04:06:25 0° 167° (SSE) 4,696 6.2 -31.2°
